DW3823 Weather Reports


Display with metric or nautical units.
time (UTC)temp
F
wind
direction
speed
MPH
gust
MPH
rain 1hr
in
rain 24hr
in
rain mn
in
humidity
%
barometer
mb
20260831200545 93 19 1.0 4.0 0.00 0.00 0.00 51 1018.4
20260831200044 93 314 1.0 5.0 0.00 0.00 0.00 54 1018.4
20260831195546 92 315 2.0 5.0 0.00 0.00 0.00 55 1018.5
20260831195043 92 266 2.0 3.0 0.00 0.00 0.00 51 1018.6
20260831194545 92 162 1.0 5.0 0.00 0.00 0.00 53 1018.8
20260831194042 92 163 2.0 5.0 0.00 0.00 0.00 52 1018.8
20260831193542 92 239 2.0 5.0 0.00 0.00 0.00 50 1018.8
20260831193042 92 296 2.0 5.0 0.00 0.00 0.00 54 1018.8
20260831192542 92 24 2.0 5.0 0.00 0.00 0.00 52 1018.8
20260831192044 92 290 1.0 3.0 0.00 0.00 0.00 51 1018.7
20260831191541 92 286 2.0 5.0 0.00 0.00 0.00 52 1018.9
20260831191044 92 315 2.0 5.0 0.00 0.00 0.00 54 1018.7
20260831190544 92 300 1.0 4.0 0.00 0.00 0.00 57 1018.7
20260831190041 91 294 1.0 4.0 0.00 0.00 0.00 55 1018.8
20260831185540 90 299 2.0 4.0 0.00 0.00 0.00 55 1019.0
20260831185039 90 76 2.0 4.0 0.00 0.00 0.00 57 1018.9
20260831184539 89 54 1.0 4.0 0.00 0.00 0.00 57 1019.2
20260831184043 90 193 2.0 4.0 0.00 0.00 0.00 53 1019.3
20260831183539 92 240 0.0 3.0 0.00 0.00 0.00 52 1019.3
20260831183038 91 242 1.0 4.0 0.00 0.00 0.00 55 1019.4
20260831182538 92 175 2.0 5.0 0.00 0.00 0.00 51 1019.5
20260831182038 91 284 2.0 6.0 0.00 0.00 0.00 53 1019.6
20260831181542 90 281 1.0 6.0 0.00 0.00 0.00 53 1019.6
20260831181037 91 172 2.0 6.0 0.00 0.00 0.00 53 1019.7
20260831180535 91 123 1.0 4.0 0.00 0.00 0.00 51 1019.8
20260831180036 90 312 1.0 4.0 0.00 0.00 0.00 55 1019.7
20260831175534 90 272 1.0 4.0 0.00 0.00 0.00 54 1019.8
20260831175035 89 210 1.0 5.0 0.00 0.00 0.00 57 1019.8
20260831174534 91 334 1.0 5.0 0.00 0.00 0.00 55 1019.8
20260831174037 90 221 2.0 6.0 0.00 0.00 0.00 55 1019.8
20260831173533 90 153 3.0 6.0 0.00 0.00 0.00 56 1019.8
20260831173032 89 286 2.0 5.0 0.00 0.00 0.00 57 1019.9
20260831172532 88 149 1.0 3.0 0.00 0.00 0.00 61 1020.0
20260831172032 88 62 1.0 4.0 0.00 0.00 0.00 59 1020.0
20260831171531 90 251 1.0 5.0 0.00 0.00 0.00 58 1020.2
20260831171029 89 219 2.0 7.0 0.00 0.00 0.00 62 1020.1
20260831170529 89 238 2.0 7.0 0.00 0.00 0.00 60 1020.2
20260831170032 89 282 2.0 7.0 0.00 0.00 0.00 61 1020.1
20260831165527 88 155 2.0 7.0 0.00 0.00 0.00 60 1020.4
20260831165026 88 203 1.0 6.0 0.00 0.00 0.00 60 1020.5
20260831164529 89 266 2.0 6.0 0.00 0.00 0.00 61 1020.6
20260831164026 88 342 3.0 7.0 0.00 0.00 0.00 62 1020.6
20260831163525 87 268 1.0 5.0 0.00 0.00 0.00 62 1020.6
20260831163024 89 298 2.0 5.0 0.00 0.00 0.00 60 1020.8
20260831162523 88 189 0.0 7.0 0.00 0.00 0.00 64 1020.8
20260831162022 88 208 0.0 7.0 0.00 0.00 0.00 63 1020.7
20260831161520 88 173 1.0 7.0 0.00 0.00 0.00 62 1020.7
20260831161025 87 242 3.0 7.0 0.00 0.00 0.00 61 1020.5
20260831160520 87 184 2.0 6.0 0.00 0.00 0.00 62 1020.6
20260831160018 87 234 1.0 6.0 0.00 0.00 0.00 64 1020.6
20260831155517 88 178 2.0 6.0 0.00 0.00 0.00 65 1020.5
20260831155015 87 134 2.0 5.0 0.00 0.00 0.00 65 1020.7
20260831154514 86 162 1.0 6.0 0.00 0.00 0.00 67 1020.7
20260831154012 87 225 2.0 5.0 0.00 0.00 0.00 65 1020.7
20260831153511 87 108 2.0 7.0 0.00 0.00 0.00 67 1020.8
20260831153014 86 282 2.0 6.0 0.00 0.00 0.00 68 1020.6
20260831152509 86 192 2.0 6.0 0.00 0.00 0.00 67 1020.7
20260831152007 86 236 2.0 8.0 0.00 0.00 0.00 67 1020.8
20260831151512 86 195 3.0 8.0 0.00 0.00 0.00 66 1020.7
20260831151005 86 328 2.0 7.0 0.00 0.00 0.00 67 1020.9
20260831150504 85 170 2.0 7.0 0.00 0.00 0.00 69 1020.9
20260831150004 85 268 1.0 6.0 0.00 0.00 0.00 69 1020.9
20260831145601 85 349 1.0 4.0 0.00 0.00 0.00 69 1020.7
20260831145101 85 213 1.0 4.0 0.00 0.00 0.00 71 1020.6
20260831144557 84 239 1.0 6.0 0.00 0.00 0.00 70 1020.8
20260831144056 83 173 2.0 7.0 0.00 0.00 0.00 70 1020.6
20260831143556 83 225 2.0 7.0 0.00 0.00 0.00 71 1020.5
20260831143109 82 169 1.0 8.0 0.00 0.00 0.00 73 1020.5
20260831142552 82 151 2.0 8.0 0.00 0.00 0.00 73 1020.4
20260831142050 81 171 0.0 7.0 0.00 0.00 0.00 74 1020.4
20260831141550 81 274 1.0 8.0 0.00 0.00 0.00 74 1020.2
20260831141048 81 176 3.0 8.0 0.00 0.00 0.00 74 1020.1
20260831140548 81 229 1.0 5.0 0.00 0.00 0.00 74 1020.3
20260831140050 81 243 2.0 5.0 0.00 0.00 0.00 75 1020.2
20260831135546 80 175 0.0 8.0 0.00 0.00 0.00 76 1020.2
20260831135046 80 195 3.0 8.0 0.00 0.00 0.00 75 1020.3
20260831134544 80 191 3.0 6.0 0.00 0.00 0.00 75 1020.4
20260831134043 80 185 1.0 6.0 0.00 0.00 0.00 76 1020.3
20260831133542 79 165 3.0 6.0 0.00 0.00 0.00 76 1020.2
20260831133040 79 152 1.0 6.0 0.00 0.00 0.00 77 1020.3
20260831132539 78 146 2.0 6.0 0.00 0.00 0.00 77 1020.4
20260831132038 78 171 3.0 6.0 0.00 0.00 0.00 78 1020.4
20260831131536 78 187 1.0 4.0 0.00 0.00 0.00 79 1020.3
20260831131035 78 171 0.0 5.0 0.00 0.00 0.00 79 1020.1
20260831130536 77 171 1.0 5.0 0.00 0.00 0.00 80 1020.0
20260831130036 77 180 1.0 5.0 0.00 0.00 0.00 81 1019.9
20260831125533 76 174 2.0 5.0 0.00 0.00 0.00 82 1019.9
20260831125031 76 183 1.0 3.0 0.00 0.00 0.00 83 1020.0
20260831124529 75 184 0.0 2.0 0.00 0.00 0.00 86 1019.9
20260831124027 74 183 0.0 3.0 0.00 0.00 0.00 88 1020.1
20260831123525 72 184 0.0 0.0 0.00 0.00 0.00 91 1020.0
20260831123026 71 184 0.0 0.0 0.00 0.00 0.00 91 1020.0
20260831122524 71 184 0.0 1.0 0.00 0.00 0.00 91 1019.8
20260831122024 71 184 0.0 1.0 0.00 0.00 0.00 92 1019.6
20260831121526 70 184 0.0 0.0 0.00 0.00 0.00 93 1019.7
20260831121023 70 184 0.0 0.0 0.00 0.00 0.00 93 1019.6
20260831120525 69 183 0.0 0.0 0.00 0.00 0.00 93 1019.6
20260831120025 69 183 0.0 0.0 0.00 0.00 0.00 92 1019.6
20260831115520 69 184 0.0 0.0 0.00 0.00 0.00 92 1019.5
20260831115019 69 183 0.0 0.0 0.00 0.00 0.00 92 1019.4
20260831114531 69 184 0.0 0.0 0.00 0.00 0.00 92 1019.4
20260831114017 69 183 0.0 0.0 0.00 0.00 0.00 91 1019.3
20260831113517 69 183 0.0 1.0 0.00 0.00 0.00 91 1019.2
20260831113017 69 183 0.0 1.0 0.00 0.00 0.00 91 1019.2
20260831112516 69 184 0.0 1.0 0.00 0.00 0.00 91 1019.2
20260831112015 69 184 0.0 1.0 0.00 0.00 0.00 91 1019.3
20260831111516 70 184 0.0 0.0 0.00 0.00 0.00 91 1019.3
20260831111016 70 184 0.0 0.0 0.00 0.00 0.00 91 1019.3
20260831110513 70 184 0.0 0.0 0.00 0.00 0.00 91 1019.2
20260831110013 70 183 0.0 0.0 0.00 0.00 0.00 91 1019.2
20260831105512 70 184 0.0 1.0 0.00 0.00 0.00 91 1019.1
20260831105013 70 184 0.0 2.0 0.00 0.00 0.00 91 1019.0
20260831104519 70 184 0.0 2.0 0.00 0.00 0.00 91 1019.0
20260831104010 69 183 0.0 0.0 0.00 0.00 0.00 92 1019.0
20260831103510 69 184 0.0 0.0 0.00 0.00 0.00 91 1019.0
20260831103010 69 183 0.0 0.0 0.00 0.00 0.00 91 1018.9
20260831102510 69 184 0.0 0.0 0.00 0.00 0.00 91 1019.0
20260831102009 70 184 0.0 0.0 0.00 0.00 0.00 90 1018.8
20260831101509 70 184 0.0 0.0 0.00 0.00 0.00 90 1018.6
20260831101009 70 183 0.0 2.0 0.00 0.00 0.00 90 1018.7
20260831100508 70 183 0.0 2.0 0.00 0.00 0.00 90 1018.7
20260831100008 70 184 0.0 2.0 0.00 0.00 0.00 90 1018.7
20260831095507 70 184 0.0 1.0 0.00 0.00 0.00 91 1018.6
20260831095009 70 183 0.0 0.0 0.00 0.00 0.00 91 1018.6
20260831094508 70 183 0.0 0.0 0.00 0.00 0.00 90 1018.6
20260831094009 70 183 0.0 1.0 0.00 0.00 0.00 90 1018.6
20260831093507 70 184 0.0 1.0 0.00 0.00 0.00 90 1018.5
20260831093007 70 184 0.0 1.0 0.00 0.00 0.00 90 1018.6
20260831092509 70 183 0.0 0.0 0.00 0.00 0.00 90 1018.5
20260831092006 70 184 0.0 1.0 0.00 0.00 0.00 91 1018.5
20260831091507 70 184 0.0 1.0 0.00 0.00 0.00 91 1018.4
20260831091007 70 183 0.0 2.0 0.00 0.00 0.00 91 1018.4
20260831090506 70 183 0.0 2.0 0.00 0.00 0.00 91 1018.5
20260831090006 70 184 0.0 0.0 0.00 0.00 0.00 91 1018.6
20260831085505 70 183 0.0 0.0 0.00 0.00 0.00 90 1018.6
20260831085004 70 183 0.0 1.0 0.00 0.00 0.00 90 1018.4
20260831084504 70 184 0.0 1.0 0.00 0.00 0.00 90 1018.4
20260831084004 70 183 0.0 0.0 0.00 0.00 0.00 90 1018.4
20260831083504 70 184 0.0 1.0 0.00 0.00 0.00 90 1018.3
20260831083004 70 184 0.0 1.0 0.00 0.00 0.00 90 1018.3
20260831082505 70 183 0.0 1.0 0.00 0.00 0.00 91 1018.2
20260831082008 70 183 0.0 0.0 0.00 0.00 0.00 91 1018.2
20260831081505 70 184 0.0 1.0 0.00 0.00 0.00 91 1018.1
20260831081005 70 183 0.0 1.0 0.00 0.00 0.00 91 1018.1
20260831080504 70 184 0.0 1.0 0.00 0.00 0.00 91 1018.2
20260831080004 70 184 0.0 0.0 0.00 0.00 0.00 91 1018.3
20260831075503 70 183 0.0 0.0 0.00 0.00 0.00 91 1018.2
20260831075002 70 183 0.0 0.0 0.00 0.00 0.00 90 1018.2
20260831074501 70 183 0.0 0.0 0.00 0.00 0.00 90 1018.1
20260831074104 70 184 0.0 0.0 0.00 0.00 0.00 90 1018.1
20260831073600 71 184 0.0 1.0 0.00 0.00 0.00 90 1018.3
20260831073100 71 183 0.0 1.0 0.00 0.00 0.00 90 1018.3
20260831072558 71 183 0.0 1.0 0.00 0.00 0.00 90 1018.4
20260831072058 70 184 0.0 0.0 0.00 0.00 0.00 90 1018.4
20260831071557 71 183 0.0 0.0 0.00 0.00 0.00 89 1018.6
20260831071100 71 183 0.0 0.0 0.00 0.00 0.00 89 1018.4
20260831070556 71 183 0.0 0.0 0.00 0.00 0.00 90 1018.5
20260831070058 71 184 0.0 0.0 0.00 0.00 0.00 89 1018.3
20260831065554 71 184 0.0 0.0 0.00 0.00 0.00 88 1018.3
20260831065054 72 360 0.0 0.0 0.00 0.00 0.00 88 1018.3
20260831064606 72 183 0.0 0.0 0.00 0.00 0.00 88 1018.3
20260831064052 72 184 0.0 0.0 0.00 0.00 0.00 88 1018.2
20260831063551 72 184 0.0 1.0 0.00 0.00 0.00 87 1018.3
20260831063051 72 184 0.0 1.0 0.00 0.00 0.00 87 1018.4
20260831062552 72 184 0.0 1.0 0.00 0.00 0.00 87 1018.5
20260831062055 72 183 0.0 1.0 0.00 0.00 0.00 88 1018.5
20260831061551 72 184 0.0 1.0 0.00 0.00 0.00 88 1018.3
20260831061050 72 184 0.0 1.0 0.00 0.00 0.00 88 1018.4
20260831060550 72 360 0.0 1.0 0.00 0.00 0.00 88 1018.5
20260831060050 72 184 0.0 0.0 0.00 0.00 0.00 88 1018.6
20260831055550 72 184 0.0 1.0 0.00 0.00 0.00 87 1018.5
20260831055049 72 184 0.0 1.0 0.00 0.00 0.00 87 1018.5
20260831054602 72 184 0.0 1.0 0.00 0.00 0.00 87 1018.5
20260831054049 72 184 0.0 1.0 0.00 0.00 0.00 87 1018.5
20260831053554 72 183 0.0 1.0 0.00 0.00 0.00 87 1018.8
20260831053049 72 184 0.0 0.0 0.00 0.00 0.00 88 1018.8
20260831052548 72 184 0.0 0.0 0.00 0.00 0.00 87 1019.0
20260831052046 72 184 0.0 1.0 0.00 0.00 0.00 87 1018.8
20260831051547 72 360 0.0 1.0 0.00 0.00 0.00 88 1018.9
20260831051043 72 184 0.0 0.0 0.00 0.00 0.00 88 1018.8
20260831050543 72 360 0.0 0.0 0.00 0.00 0.00 88 1018.6
20260831050041 72 184 0.0 0.0 0.00 0.00 0.00 87 1018.6
20260831045541 73 183 0.0 0.0 0.00 0.00 0.00 88 1018.6
20260831045042 73 360 0.0 0.0 0.00 0.00 0.00 87 1018.6
20260831044549 73 184 0.0 0.0 0.00 0.00 0.00 87 1018.7
20260831044044 73 184 0.0 1.0 0.00 0.00 0.00 87 1018.6
20260831043540 73 184 0.0 2.0 0.00 0.00 0.00 87 1018.6
20260831043039 73 184 0.0 1.0 0.00 0.00 0.00 87 1018.6
20260831042540 73 184 0.0 1.0 0.00 0.00 0.00 87 1018.6
20260831042042 72 184 0.0 0.0 0.00 0.00 0.00 88 1018.7
20260831041557 73 184 0.0 0.0 0.00 0.00 0.00 88 1018.8
20260831041039 73 360 0.0 0.0 0.00 0.00 0.00 87 1018.7
20260831040540 73 184 0.0 0.0 0.00 0.00 0.00 88 1018.7
20260831040042 73 360 0.0 0.0 0.00 0.00 0.00 88 1018.6
20260831035538 73 360 0.0 0.0 0.00 0.00 0.00 88 1018.8
20260831035038 73 360 0.0 1.0 0.00 0.00 0.00 87 1018.7
20260831034538 74 360 0.0 1.0 0.00 0.00 0.00 87 1018.7
20260831034042 73 360 0.0 0.0 0.00 0.00 0.00 88 1018.9
20260831033538 73 360 0.0 0.0 0.00 0.00 0.00 88 1018.8
20260831033038 73 360 0.0 0.0 0.00 0.00 0.00 88 1018.9
20260831032538 73 360 0.0 0.0 0.00 0.00 0.00 88 1018.9
20260831032038 73 360 0.0 0.0 0.00 0.00 0.00 88 1018.7
20260831031540 73 360 0.0 0.0 0.00 0.00 0.00 88 1018.6
20260831031038 73 360 0.0 0.0 0.00 0.00 0.00 88 1018.6
20260831030539 73 360 0.0 0.0 0.00 0.00 0.00 88 1018.6
20260831030046 73 360 0.0 0.0 0.00 0.00 0.00 88 1018.6
20260831025537 74 360 0.0 0.0 0.00 0.00 0.00 87 1018.5
20260831025037 74 360 0.0 0.0 0.00 0.00 0.00 87 1018.5
20260831024542 74 360 0.0 0.0 0.00 0.00 0.00 86 1018.7
20260831024036 74 360 0.0 0.0 0.00 0.00 0.00 86 1018.6
20260831023537 74 360 0.0 0.0 0.00 0.00 0.00 85 1018.6
20260831023036 74 360 0.0 0.0 0.00 0.00 0.00 87 1018.4
20260831022536 74 360 0.0 0.0 0.00 0.00 0.00 87 1018.5
20260831022036 74 360 0.0 0.0 0.00 0.00 0.00 86 1018.6
20260831021536 74 360 0.0 0.0 0.00 0.00 0.00 86 1018.4
20260831021036 74 360 0.0 0.0 0.00 0.00 0.00 86 1018.6
20260831020537 74 360 0.0 0.0 0.00 0.00 0.00 86 1018.4
20260831020035 74 360 0.0 0.0 0.00 0.00 0.00 86 1018.4
20260831015535 74 360 0.0 0.0 0.00 0.00 0.00 86 1018.4
20260831015035 74 360 0.0 0.0 0.00 0.00 0.00 85 1018.1
20260831014536 75 360 0.0 0.0 0.00 0.00 0.00 85 1018.2
20260831014035 75 360 0.0 0.0 0.00 0.00 0.00 85 1017.9
20260831013535 75 360 0.0 0.0 0.00 0.00 0.00 85 1018.0
20260831013039 75 360 0.0 0.0 0.00 0.00 0.00 84 1018.0
20260831012534 75 360 0.0 0.0 0.00 0.00 0.00 83 1017.9
20260831012035 76 360 0.0 1.0 0.00 0.00 0.00 83 1017.9
20260831011537 76 360 0.0 0.0 0.00 0.00 0.00 82 1017.9
20260831011034 75 360 0.0 0.0 0.00 0.00 0.00 83 1018.0
20260831010536 75 360 0.0 0.0 0.00 0.00 0.00 84 1017.7
20260831010034 75 360 0.0 0.0 0.00 0.00 0.00 84 1017.7
20260831005535 75 360 0.0 0.0 0.00 0.00 0.00 83 1017.7
20260831005034 76 360 0.0 0.0 0.00 0.00 0.00 83 1017.7
20260831004535 76 360 0.0 0.0 0.00 0.00 0.00 83 1017.8
20260831004033 76 360 0.0 0.0 0.00 0.00 0.00 82 1017.6
20260831003533 76 360 0.0 0.0 0.00 0.00 0.00 81 1017.6
20260831003033 77 184 0.0 0.0 0.00 0.00 0.00 81 1017.7
20260831002532 77 184 0.0 0.0 0.00 0.00 0.00 79 1017.5
20260831002032 78 184 0.0 0.0 0.00 0.00 0.00 78 1017.4
20260831001531 78 184 0.0 0.0 0.00 0.00 0.00 77 1017.3
20260831001034 78 183 0.0 0.0 0.00 0.00 0.00 77 1017.3
20260831000531 79 184 0.0 0.0 0.00 0.00 0.00 76 1017.1
20260831000031 79 184 0.0 0.0 0.00 0.00 0.00 74 1017.2
20260830235531 80 183 0.0 0.0 0.00 0.00 0.00 74 1017.1
20260830235029 80 184 0.0 0.0 0.00 0.00 0.00 73 1017.1
20260830234540 81 184 0.0 1.0 0.00 0.00 0.00 71 1017.3
20260830234029 81 183 0.0 1.0 0.00 0.00 0.00 72 1017.2
20260830233529 83 184 0.0 1.0 0.00 0.00 0.00 69 1017.4
20260830233029 83 184 0.0 1.0 0.00 0.00 0.00 66 1017.4
20260830232529 85 184 0.0 3.0 0.00 0.00 0.00 64 1017.4
20260830232029 87 183 1.0 5.0 0.00 0.00 0.00 57 1017.2
20260830231535 87 224 3.0 5.0 0.00 0.00 0.00 55 1017.4
20260830231030 87 224 1.0 3.0 0.00 0.00 0.00 56 1017.5
20260830230529 87 173 1.0 4.0 0.00 0.00 0.00 57 1017.4
20260830230039 87 173 2.0 4.0 0.00 0.00 0.00 58 1017.5
20260830225526 88 169 0.0 4.0 0.00 0.00 0.00 62 1017.5
20260830225026 88 185 1.0 6.0 0.00 0.00 0.00 58 1017.5
20260830224526 88 173 2.0 6.0 0.00 0.00 0.00 57 1017.4
20260830224026 88 176 1.0 6.0 0.00 0.00 0.00 58 1017.3
20260830223527 88 219 3.0 6.0 0.00 0.00 0.00 56 1017.5
20260830223026 89 229 2.0 6.0 0.00 0.00 0.00 57 1017.4
20260830222525 89 190 2.0 6.0 0.00 0.00 0.00 56 1017.2
20260830222025 89 171 2.0 5.0 0.00 0.00 0.00 57 1017.2
20260830221525 89 223 2.0 5.0 0.00 0.00 0.00 56 1017.2
20260830221025 89 160 2.0 6.0 0.00 0.00 0.00 56 1017.2
20260830220524 90 241 2.0 5.0 0.00 0.00 0.00 57 1017.2
20260830220026 90 172 2.0 6.0 0.00 0.00 0.00 56 1017.3
20260830215525 90 172 2.0 6.0 0.00 0.00 0.00 56 1017.3
20260830215027 88 189 2.0 5.0 0.00 0.00 0.00 58 1017.3
20260830214524 87 189 0.0 2.0 0.00 0.00 0.00 62 1017.2
20260830214023 87 189 0.0 3.0 0.00 0.00 0.00 64 1017.4
20260830213524 88 189 1.0 5.0 0.00 0.00 0.00 58 1017.3
20260830213023 89 164 3.0 7.0 0.00 0.00 0.00 56 1017.4
20260830212522 90 171 2.0 7.0 0.00 0.00 0.00 55 1017.5
20260830212022 91 188 1.0 6.0 0.00 0.00 0.00 56 1017.4
20260830211523 90 178 1.0 3.0 0.00 0.00 0.00 52 1017.5
20260830211022 91 274 1.0 4.0 0.00 0.00 0.00 50 1017.5
20260830210522 91 286 1.0 6.0 0.00 0.00 0.00 53 1017.5
20260830210022 91 260 2.0 6.0 0.00 0.00 0.00 50 1017.6
20260830205525 91 245 1.0 6.0 0.00 0.00 0.00 51 1017.6
20260830205021 92 261 2.0 4.0 0.00 0.00 0.00 53 1017.4
20260830204520 91 252 1.0 5.0 0.00 0.00 0.00 50 1017.5
20260830204020 91 282 2.0 7.0 0.00 0.00 0.00 49 1017.5
20260830203520 92 229 1.0 7.0 0.00 0.00 0.00 51 1017.5
20260830203023 92 162 2.0 5.0 0.00 0.00 0.00 51 1017.5
20260830202519 92 223 1.0 5.0 0.00 0.00 0.00 50 1017.7
20260830202020 92 269 1.0 4.0 0.00 0.00 0.00 53 1017.7
20260830201533 91 178 2.0 8.0 0.00 0.00 0.00 51 1017.8
20260830201017 91 152 4.0 8.0 0.00 0.00 0.00 53 1017.8